Miscellaneous Local Product
Issued by NWS Hastings, NE

Home | Current Version | Previous Version | Text Only | Print | Product List | Glossary On
Versions: 1 2 3 4 5 6 7 8 9 10 11 12 13 14 15 16 17 18 19 20 21 22 23 24 25 26 27 28 29 30 31 32 33 34 35 36 37 38 39 40 41 42 43 44 45 46 47 48 49 50
000
AXUS43 KGID 241002
MISGRI

GID CWA HOURLY WEATHER ROUNDUP
NATIONAL WEATHER SERVICE HASTINGS NE
500 AM CDT THU APR 24 2014

NOTE: "FAIR" INDICATES FEW OR NO CLOUDS BELOW 12,000 FEET WITH NO
SIGNIFICANT WEATHER AND/OR OBSTRUCTIONS TO VISIBILITY.

...SOUTH CENTRAL NEBRASKA...

CITY           SKY/WX    TMP DP  RH WIND       PRES   REMARKS
GRAND ISLAND   CLOUDY    51  45  79 N13       29.71R
HASTINGS       LGT RAIN  51  44  77 N14       29.71R
KEARNEY        CLOUDY    52  43  71 N14       29.73S
ORD            CLOUDY    50  42  74 N9        29.70F
YORK           HVY RAIN  52  52 100 NW18G30   29.68R
AURORA         LGT RAIN  51  51 100 N17G25    29.70R
LEXINGTON      LGT RAIN  52  39  62 NW10      29.77R
HOLDREGE       CLOUDY    51  43  74 NW9       29.74R
HEBRON         HVY RAIN  54  53  94 CALM      29.67R

...NEBRASKA PANHANDLE...

CITY           SKY/WX    TMP DP  RH WIND       PRES   REMARKS
CHADRON        PTCLDY    39  31  72 W10       29.88S WCI  32
ALLIANCE       PTCLDY    31  28  89 W8        29.88R WCI  23
SCOTTSBLUFF    PTCLDY    37  33  85 W10       29.93R WCI  30
SIDNEY         CLOUDY    40  31  70 NW14      29.93R WCI  32

...WESTERN AND NORTH CENTRAL NEBRASKA...

CITY           SKY/WX    TMP DP  RH WIND       PRES   REMARKS
VALENTINE      MOCLDY    46  34  62 NW9       29.78S
AINSWORTH      MOCLDY    49  35  58 NW10      29.76S
ONEILL         CLOUDY    54  34  48 NW14G21   29.70F
BROKEN BOW     CLOUDY    50  35  56 N13       29.74R
IMPERIAL       CLOUDY    49  35  58 NW12      29.86R
NORTH PLATTE   MOCLDY    51  35  54 NW12      29.80R
MCCOOK         CLOUDY    54  35  48 N14       29.81R

...EASTERN NEBRASKA...

CITY           SKY/WX    TMP DP  RH WIND       PRES   REMARKS
NORFOLK        LGT RAIN  52  47  83 NW13      29.66S
SO SIOUX CITY  RAIN      49  47  93 SE5       29.66S
TEKAMAH        LGT RAIN  49  46  90 N7        29.64F
COLUMBUS       CLOUDY    52  46  82 W8        29.68R
ALBION         CLOUDY    49  47  91 NW8       29.69S
OMAHA EPPLEY   CLOUDY    49  45  86 NW7       29.63F
OFFUTT AFB     LGT RAIN  49  49  99 NW6       29.62R
MILLARD        DRIZZLE   49  46  88 NW3       29.62S
LINCOLN        LGT RAIN  51  48  89 N5        29.65R FOG
NEBRASKA CITY  CLOUDY    51  49  93 CALM      29.61F
BEATRICE       LGT RAIN  51  50  93 NW6       29.61F
FALLS CITY     CLOUDY    53  49  86 NW16      29.62R

...NORTHERN KANSAS...

CITY           SKY/WX    TMP DP  RH WIND       PRES   REMARKS
GOODLAND       CLOUDY    51  25  36 NW21G26   29.84S
HILL CITY      CLOUDY    53  43  68 NW8       29.76S
PHILLIPSBURG   PTCLDY    54  46  76 NW12      29.73S
SMITH CENTER   CLOUDY    52  48  87 NW9       29.72S
BELOIT         CLOUDY    54  52  94 NW15      29.65F
HAYS           CLOUDY    54  46  76 NW16      29.72F
RUSSELL        CLOUDY    54  48  80 N18G30    29.68F
CONCORDIA      RAIN      54  53  97 NW16      29.66F
SALINA         CLOUDY    58  55  90 N13       29.66F FOG
TOPEKA         LGT RAIN  71  56  58 SW12G28   29.61F



USA.gov is the U.S. government's official web portal to all federal, state and local government web resources and services.